AirNav   Air Wisconsin pilot careers
 
 1364 users online  

KSLI Los Alamitos Army Airfield
Los Alamitos, California, USA

GOING TO LOS ALAMITOS?


FAA INFORMATION EFFECTIVE 06 DECEMBER 2018

Location

FAA Identifier: SLI
Lat/Long: 33-47-24.1080N / 118-03-05.1120W
33-47.401800N / 118-03.085200W
33.7900300 / -118.0514200
(estimated)
Elevation: 35.5 ft. / 10.8 m (surveyed)
Variation: 12E (2020)
From city: 1 mile SE of LOS ALAMITOS, CA
Time zone: UTC -8 (UTC -7 during Daylight Saving Time)
Zip code: 90720

Airport Operations

Airport use: Private use. Permission required prior to landing
Activation date: 04/1944
Control tower: yes
ARTCC: LOS ANGELES CENTER
FSS: HAWTHORNE FLIGHT SERVICE STATION
NOTAMs facility: SLI (NOTAM-D service available)
Attendance: TUE-THU 1400-0500Z++, ALL FRI 1400-0200Z++, ALL SAT-SUN 1530-2300Z++, ALL MON 1400-0200Z++
CLSD HOL. RSTD: PPR CTC AFLD OPS DSN 972-2571, C562-795-2571; HTTP://WWW.CALGUARD.CA.GOV/AA-LOSAI.
Segmented circle: no
Lights: SS-SR
Beacon: white-white-green (lighted military airport)
Operates sunset to sunrise.

Airport Communications

ATIS: 118.875 379.975
LOS ALAMITOS GROUND: 126.95 257.95 [1500-0500Z++ TUE-THU, 1600-0000Z++ FRI-MON; CLSD HOL]
LOS ALAMITOS TOWER: 123.85 251.15 [1500-0500Z++ TUE-THU, 1600-0000Z++ FRI-MON; CLSD HOL]
SOCAL APPROACH: 125.35
SOCAL DEPARTURE: 125.35
AR OPS: 139.05 230.9
EMERG: 243.0
HAWWC DP: 125.35
OPS: 126.2 AFLD OPS ADVSY SVC 233.8 ARNG AASF 237.2 AFLD OPS ADVSY SVC 41.5 ARNG AASF
RADAR: 124.75 127.95 230.8 231.0 234.1
WX ASOS at LGB (5 nm W): PHONE 562-424-0572
WX ASOS at FUL (6 nm NE): PHONE 714-870-1372
WX AWOS-3PT at CPM (11 nm NW): 127.150 (310-631-4958)
WX ASOS at SNA (11 nm SE): PHONE 714-424-0590
WX ASOS at HHR (16 nm NW): PHONE 310-973-8930
WX AWOS-3PT at EMT (18 nm N): 118.75 ((626) 444-1107)
WX ASOS at LAX (20 nm NW): PHONE 310-568-1486
  • FOR CLNC DEL WHEN ATCT CLSD CALL SOCAL APCH (800) 448-3724.

Nearby radio navigation aids

VOR radial/distance  VOR name  Freq  Var
SLI at fieldSEAL BEACH VORTAC115.7015E
ELBr279/17.4EL TORO VOR/DME117.2014E
LAXr099/20.8LOS ANGELES VORTAC113.6015E
POMr202/21.7POMONA VORTAC110.4015E
SMOr108/24.1SANTA MONICA VOR/DME110.8015E
PDZr238/27.1PARADISE VORTAC112.2015E
SXCr021/31.0SANTA CATALINA VORTAC111.4015E
RALr238/(31.6)RIVERSIDE VOR112.4014E
VNYr125/34.0VAN NUYS VOR/DME113.1015E

 
NDB name  Hdg/Dist  Freq  Var  ID
EL MONTE168/17.935915EEMT . -- -

Airport Services

Fuel available: A1+ JET-B+
Oil available: AFLD OPS ADVSY 126.2/237.2 WHEN LOS ALAMITOS TWR CLSD.

Runway Information

Runway 4R/22L

Dimensions: 7999 x 200 ft. / 2438 x 61 m
Surface: asphalt/concrete
Weight bearing capacity: 
PCN 36 /R/C/W/T
Runway edge lights: high intensity
HIRL ELEV 1' AND LCTD 5' FR EDGE OF RWY.
RUNWAY 4R  RUNWAY 22L
Latitude: 33-47.026767N33-47.783300N
Longitude: 118-03.613500W118-02.319133W
Elevation: 21.2 ft.35.5 ft.
Traffic pattern: leftleft
Visual slope indicator: 4-light PAPI on left (3.00 degrees glide path)
Approach lights: SALSF
Runway end identifier lights: noyes
Centerline lights: yesyes
Touchdown point: yes, no lightsyes, no lights

Runway 4L/22R

Dimensions: 5901 x 150 ft. / 1799 x 46 m
Surface: PEM
Weight bearing capacity: 
PCN 36 /F/C/W/T
Runway edge lights: medium intensity
RUNWAY 4L  RUNWAY 22R
Latitude: 33-47.118333N33-47.676383N
Longitude: 118-03.723767W118-02.768750W
Elevation: 20.0 ft.26.9 ft.
Traffic pattern: leftleft
Touchdown point: yes, no lightsyes, no lights

Airport Ownership and Management from official FAA records

Ownership: U.S. Army
Owner: US ARMY
AASF, CAARNG, 4612 DOOLITTLE AVE
LOS ALAMITOS, CA 90720
Phone 562-795-2571
Manager: BASE OPS
LOS ALAMITOS, CA 90720
Phone 562-795-2571

Additional Remarks

RWY-LGTS: RWY 22L - SF.
MISC - WINDS ARE ACCURATE TO WITHIN PLUS OR MINUS 4 KNOTS.
MISC: TO EXCEED WT BRG CAP CTC AFLD OPS. SEE FLIP AP/1 RTE AND AREA RSTD AND SUPPLEMENT ARPT RMK.
ARNG AASF OPS- OPR 1530-2330Z++ MON-FRI; EXC HOL. DSN 972-2006, C562-795-2006. HTTP://WWW.CALGUARD.CA.GOV/AASF1.
RSTD: FOR SPECIAL AFTER HRS LNDG AND AFLD LIGHTING REQUESTS FOR ACFT WEIGHING UNDER 14,500 LBS, CALL AFLD OPS AT 562-795-2571.
RWY-17/35 CLSD (2500X150 ASP).
JASU - 4(E3) 2(AGPU) 2(AM32A-60B-WO DC PWR).
FUEL - J8
NS ABTMT - PRO IN EFF. ALL DEP RQR BRIEFINGS.

Instrument Procedures

NOTE: All procedures below are presented as PDF files. If you need a reader for these files, you should download the free Adobe Reader.

NOT FOR NAVIGATION. Please procure official charts for flight.
FAA instrument procedures published for use from 6 December 2018 at 0901Z to 3 January 2019 at 0900Z.

 
STARs - Standard Terminal Arrivals
KAYOH SEVEN   download (303KB)
 
IAPs - Instrument Approach Procedures
RNAV (GPS) RWY 22L   download (53KB)
VOR OR TACAN RWY 22L   download (139KB)
Radar Approach Procedures available   download (74KB)
 
Departure Procedures
HAWWC THREE (RNAV)   download (174KB)
NOTE: Special Take-Off Minimums/Departure Procedures apply   download (215KB)

Other nearby airports with instrument procedures:

KLGB - Long Beach Airport (Daugherty Field) (5 nm W)
KFUL - Fullerton Municipal Airport (6 nm NE)
KSNA - John Wayne-Orange County Airport (11 nm SE)
KTOA - Zamperini Field Airport (14 nm W)
KHHR - Jack Northrop Field/Hawthorne Municipal Airport (16 nm NW)
KEMT - San Gabriel Valley Airport (18 nm N)
KLAX - Los Angeles International Airport (20 nm NW)
 
Loc | Ops | Rwys | IFR | FBO | Links
Com | Nav | Svcs | Stats | Notes

San Bernardino International Airport Authority
 
Area around KSLI (Los Alamitos Army Airfield)
 
Road maps at: MapQuest Bing Google
 
Aerial photo
WARNING: Photo may not be current or correct
Aerial photo of KSLI (Los Alamitos Army Airfield)
Photo courtesy of FocalFlight.com
Photo taken 01-Nov-2015
looking north.

Do you have a better or more recent aerial photo of Los Alamitos Army Airfield that you would like to share? If so, please send us your photo.

 
Sectional chart

 
Airport diagram
Diagram of KSLI (Los Alamitos Army Airfield)
Download PDF
of official airport diagram from the FAA

 
Airport distance calculator
Flying to Los Alamitos Army Airfield? Find the distance to fly.

From to KSLI

Sunrise and sunset
Times for 18-Dec-2018
 Local
(UTC-8)
 Zulu
(UTC)
Morning civil twilight06:2514:25
Sunrise06:5314:53
Sunset16:4500:45
Evening civil twilight17:1301:13

Current date and time
Zulu (UTC)  18-Dec-2018 17:47:18
Local (UTC-8)  18-Dec-2018 09:47:18
 
METAR
KSLI 
2nm SE 
181658Z 00000KT 10SM FEW020 BKN250 15/15 A3023 RMK AO2A SLP240 T01490147
KLGB 
5nm W 
181653Z 00000KT 6SM BR SCT022 16/13 A3023 RMK AO2 SLP237 T01560133 $
KFUL 
6nm NE 
181653Z 08004KT 7SM OVC020 15/11 A3023 RMK AO2 SLP234 T01500111
KSNA 
12nm SE 
181653Z 05003KT 8SM FEW020 BKN200 16/12 A3023 RMK AO2 SLP237 T01610117
KTOA 
13nm W 
181650Z 00000KT 7SM FEW010 SCT019 BKN180 14/12 A3024
KHHR 
16nm NW 
181653Z 00000KT 7SM CLR 16/12 A3024 RMK AO2 SLP240 T01560122 $
KEMT 
17nm N 
181645Z 00000KT 10SM FEW018 14/08 A3025
KCQT 
18nm NW 
181647Z AUTO 00000KT 7SM CLR 15/11 A3023 RMK AO2 SLP235 T01500111
KLAX 
19nm NW 
181653Z 00000KT 6SM HZ FEW018 SCT140 BKN180 16/13 A3024 RMK AO2 SLP239 T01560128
TAF
KSLI 
2nm SE 
181305Z 1813/1919 VRB06KT 9999 SCT018 QNH3016INS TEMPO 1813/1816 6000 BR BKN018 BECMG 1815/1816 VRB06KT 9999 SCT010 QNH3010INS BECMG 1819/1820 VRB06KT 9999 FEW300 QNH3018INS BECMG 1914/1915 VRB06KT 9999 SKC QNH3020INS TX19/1823Z TN12/1813Z
KLGB 
5nm W 
181353Z 1814/1912 00000KT P6SM SCT018 FM182000 22004KT P6SM SCT250 FM182300 29006KT P6SM SKC FM190600 VRB03KT 4SM BR SKC FM190900 VRB03KT 2SM BR SCT005
KSNA 
12nm SE 
181545Z 1816/1912 VRB04KT P6SM SCT015 SCT250 FM182000 21007KT P6SM SCT250 FM190100 VRB04KT P6SM SCT010
KLAX 
19nm NW 
181433Z 1815/1918 33003KT P6SM FEW009 BKN250 FM182000 26008KT P6SM SCT250 FM190500 VRB03KT P6SM SKC FM191400 VRB03KT 5SM BR SKC
NOTAMs
Click for the latest NOTAMs
NOTAMs are issued by the DoD/FAA and will open in a separate window not controlled by AirNav.

 

 
 

Would you like to see your business listed on this page?

 If your business provides an interesting product or service to pilots, flight crews, aircraft, or users of the Los Alamitos Army Airfield, you should consider listing it here.  To start the listing process, click on the button below
 
Add a business
 

Other Pages about Los Alamitos Army Airfield

www.aircav.com/sli.html
 
Update a link
 
Copyright © AirNav, LLC. All rights reserved. Privacy Policy  Contact